Time,TemperatureF,DewpointF,PressureIn,WindDirection,WindDirectionDegrees,WindSpeedMPH,WindSpeedGustMPH,Humidity,HourlyPrecipIn,Conditions,Clouds,dailyrainin,SoftwareType,DateUTC
2013-01-30 00:10:00,36.9,34.8,29.97,North,0,0.0,0.0,92,0.00,,,0.00,Wunderground v.1.15,2013-01-30 05:10:00,
2013-01-30 00:20:00,36.9,34.8,29.96,North,0,0.0,0.0,92,0.00,,,0.00,Wunderground v.1.15,2013-01-30 05:20:00,
2013-01-30 00:30:00,36.9,34.8,29.95,North,0,0.0,0.0,92,0.00,,,0.00,Wunderground v.1.15,2013-01-30 05:30:00,
2013-01-30 00:40:00,36.9,34.8,29.95,North,0,0.0,0.0,92,0.00,,,0.00,Wunderground v.1.15,2013-01-30 05:40:00,
2013-01-30 00:50:00,36.9,34.8,29.94,North,0,0.0,0.0,92,0.00,,,0.00,Wunderground v.1.15,2013-01-30 05:50:00,
2013-01-30 01:00:00,37.0,34.9,29.93,North,0,0.0,0.0,92,0.00,,,0.00,Wunderground v.1.15,2013-01-30 06:00:00,
2013-01-30 01:10:00,37.0,34.9,29.93,North,0,0.0,0.0,92,0.00,,,0.00,Wunderground v.1.15,2013-01-30 06:10:00,
2013-01-30 01:20:00,37.0,34.9,29.93,North,0,0.0,0.0,92,0.00,,,0.00,Wunderground v.1.15,2013-01-30 06:20:00,
2013-01-30 01:30:00,37.2,35.1,29.91,North,0,0.0,0.0,92,0.00,,,0.00,Wunderground v.1.15,2013-01-30 06:30:00,
2013-01-30 01:40:00,37.3,35.2,29.91,North,0,0.0,0.0,92,0.00,,,0.00,Wunderground v.1.15,2013-01-30 06:40:00,
2013-01-30 01:50:00,37.5,35.4,29.91,North,0,0.0,0.0,92,0.00,,,0.00,Wunderground v.1.15,2013-01-30 06:50:00,
2013-01-30 02:00:00,37.6,35.5,29.90,North,0,0.0,0.0,92,0.00,,,0.00,Wunderground v.1.15,2013-01-30 07:00:00,
2013-01-30 02:10:00,37.8,35.7,29.90,North,0,0.0,1.0,92,0.00,,,0.00,Wunderground v.1.15,2013-01-30 07:10:00,
2013-01-30 02:20:00,37.8,35.7,29.89,North,0,0.0,0.0,92,0.00,,,0.00,Wunderground v.1.15,2013-01-30 07:20:00,
2013-01-30 02:30:00,37.9,35.8,29.88,North,0,0.0,0.0,92,0.00,,,0.00,Wunderground v.1.15,2013-01-30 07:30:00,
2013-01-30 02:40:00,38.0,35.9,29.88,North,0,0.0,0.0,92,0.00,,,0.00,Wunderground v.1.15,2013-01-30 07:40:00,
2013-01-30 02:50:00,38.2,36.1,29.88,North,0,0.0,0.0,92,0.00,,,0.00,Wunderground v.1.15,2013-01-30 07:50:00,
2013-01-30 03:00:00,38.5,36.7,29.88,North,0,0.0,0.0,93,0.00,,,0.00,Wunderground v.1.15,2013-01-30 08:00:00,
2013-01-30 03:10:00,38.0,35.9,29.88,North,0,0.0,0.0,92,0.00,,,0.00,Wunderground v.1.15,2013-01-30 08:10:00,
2013-01-30 03:20:00,37.3,35.2,29.87,North,0,0.0,0.0,92,0.00,,,0.00,Wunderground v.1.15,2013-01-30 08:20:00,
2013-01-30 03:30:00,37.0,34.9,29.86,North,0,0.0,0.0,92,0.00,,,0.00,Wunderground v.1.15,2013-01-30 08:30:00,
2013-01-30 03:40:00,37.0,34.9,29.86,North,0,0.0,0.0,92,0.00,,,0.00,Wunderground v.1.15,2013-01-30 08:40:00,
2013-01-30 03:50:00,37.0,34.9,29.85,North,0,0.0,0.0,92,0.00,,,0.00,Wunderground v.1.15,2013-01-30 08:50:00,
2013-01-30 04:00:00,37.2,35.1,29.84,North,0,0.0,0.0,92,0.00,,,0.00,Wunderground v.1.15,2013-01-30 09:00:00,
2013-01-30 04:10:00,37.5,35.7,29.84,North,0,0.0,0.0,93,0.00,,,0.00,Wunderground v.1.15,2013-01-30 09:10:00,
2013-01-30 04:20:00,37.5,35.7,29.84,North,0,0.0,0.0,93,0.00,,,0.00,Wunderground v.1.15,2013-01-30 09:20:00,
2013-01-30 04:30:00,37.2,35.4,29.83,North,0,0.0,0.0,93,0.00,,,0.00,Wunderground v.1.15,2013-01-30 09:30:00,
2013-01-30 04:40:00,36.9,34.8,29.83,North,0,0.0,0.0,92,0.00,,,0.00,Wunderground v.1.15,2013-01-30 09:40:00,
2013-01-30 04:50:00,37.0,35.2,29.82,North,0,0.0,0.0,93,0.00,,,0.00,Wunderground v.1.15,2013-01-30 09:50:00,
2013-01-30 05:00:00,38.0,36.2,29.81,North,0,0.0,0.0,93,0.00,,,0.00,Wunderground v.1.15,2013-01-30 10:00:00,
2013-01-30 05:10:00,40.5,38.6,29.81,NW,322,0.0,0.0,93,0.00,,,0.00,Wunderground v.1.15,2013-01-30 10:10:00,
2013-01-30 05:20:00,40.9,39.0,29.82,NW,322,0.0,0.0,93,0.00,,,0.00,Wunderground v.1.15,2013-01-30 10:20:00,
2013-01-30 05:30:00,40.3,38.4,29.81,NW,322,0.0,0.0,93,0.00,,,0.00,Wunderground v.1.15,2013-01-30 10:30:00,
2013-01-30 05:40:00,39.9,38.0,29.81,NW,322,0.0,0.0,93,0.00,,,0.00,Wunderground v.1.15,2013-01-30 10:40:00,
2013-01-30 05:50:00,40.2,38.3,29.81,NW,322,0.0,0.0,93,0.00,,,0.00,Wunderground v.1.15,2013-01-30 10:50:00,
2013-01-30 06:00:00,40.6,38.7,29.81,NW,322,0.0,0.0,93,0.00,,,0.00,Wunderground v.1.15,2013-01-30 11:00:00,
2013-01-30 06:10:00,41.9,40.3,29.81,NW,318,0.0,0.0,94,0.00,,,0.00,Wunderground v.1.15,2013-01-30 11:10:00,
2013-01-30 06:20:00,42.5,40.9,29.79,NW,318,0.0,0.0,94,0.00,,,0.00,Wunderground v.1.15,2013-01-30 11:20:00,
2013-01-30 06:30:00,42.8,41.2,29.79,NW,319,0.0,1.0,94,0.00,,,0.00,Wunderground v.1.15,2013-01-30 11:30:00,
2013-01-30 06:40:00,42.9,41.3,29.79,NNW,330,0.0,2.0,94,0.00,,,0.00,Wunderground v.1.15,2013-01-30 11:40:00,
2013-01-30 06:50:00,43.1,41.5,29.78,WNW,284,1.0,1.0,94,0.00,,,0.00,Wunderground v.1.15,2013-01-30 11:50:00,
2013-01-30 07:00:00,43.1,41.5,29.77,North,8,0.0,0.0,94,0.00,,,0.00,Wunderground v.1.15,2013-01-30 12:00:00,
2013-01-30 07:10:00,43.1,41.5,29.77,NW,325,0.0,2.0,94,0.00,,,0.00,Wunderground v.1.15,2013-01-30 12:10:00,
2013-01-30 07:20:00,43.6,42.0,29.77,North,359,1.0,2.0,94,0.00,,,0.00,Wunderground v.1.15,2013-01-30 12:20:00,
2013-01-30 07:30:00,43.6,42.0,29.77,North,353,0.0,0.0,94,0.00,,,0.00,Wunderground v.1.15,2013-01-30 12:30:00,
2013-01-30 07:40:00,43.9,42.3,29.77,North,0,1.0,1.0,94,0.00,,,0.00,Wunderground v.1.15,2013-01-30 12:40:00,
2013-01-30 07:50:00,43.9,42.3,29.76,North,0,1.0,1.0,94,0.00,,,0.00,Wunderground v.1.15,2013-01-30 12:50:00,
2013-01-30 08:00:00,44.1,42.5,29.75,North,357,0.0,0.0,94,0.00,,,0.00,Wunderground v.1.15,2013-01-30 13:00:00,
2013-01-30 08:10:00,44.2,42.6,29.75,North,359,0.0,0.0,94,0.00,,,0.00,Wunderground v.1.15,2013-01-30 13:10:00,
2013-01-30 08:20:00,44.2,42.6,29.76,NE,34,0.0,0.0,94,0.00,,,0.00,Wunderground v.1.15,2013-01-30 13:20:00,
2013-01-30 08:30:00,44.3,42.7,29.75,WNW,299,0.0,0.0,94,0.00,,,0.00,Wunderground v.1.15,2013-01-30 13:30:00,
2013-01-30 08:40:00,44.2,42.6,29.75,North,349,0.0,0.0,94,0.00,,,0.00,Wunderground v.1.15,2013-01-30 13:40:00,
2013-01-30 08:50:00,44.5,42.9,29.74,North,0,0.0,0.0,94,0.00,,,0.00,Wunderground v.1.15,2013-01-30 13:50:00,
2013-01-30 09:00:00,44.9,43.3,29.73,North,0,0.0,0.0,94,0.00,,,0.00,Wunderground v.1.15,2013-01-30 14:00:00,
2013-01-30 09:10:00,45.2,43.6,29.73,North,0,0.0,0.0,94,0.00,,,0.00,Wunderground v.1.15,2013-01-30 14:10:00,
2013-01-30 09:20:00,45.5,43.9,29.73,NNE,13,0.0,2.0,94,0.00,,,0.00,Wunderground v.1.15,2013-01-30 14:20:00,
2013-01-30 09:30:00,45.5,43.9,29.72,North,1,1.0,1.0,94,0.00,,,0.00,Wunderground v.1.15,2013-01-30 14:30:00,
2013-01-30 09:40:00,45.4,43.8,29.72,NW,313,0.0,0.0,94,0.00,,,0.00,Wunderground v.1.15,2013-01-30 14:40:00,
2013-01-30 09:50:00,45.4,43.8,29.71,NW,326,0.0,0.0,94,0.00,,,0.00,Wunderground v.1.15,2013-01-30 14:50:00,
2013-01-30 10:00:00,45.7,44.1,29.70,NNW,332,0.0,2.0,94,0.00,,,0.00,Wunderground v.1.15,2013-01-30 15:00:00,
2013-01-30 10:10:00,46.0,44.4,29.70,North,3,1.0,1.0,94,0.00,,,0.00,Wunderground v.1.15,2013-01-30 15:10:00,
2013-01-30 10:20:00,46.2,44.6,29.71,North,1,0.0,0.0,94,0.00,,,0.00,Wunderground v.1.15,2013-01-30 15:20:00,
2013-01-30 10:30:00,46.5,44.9,29.69,North,0,0.0,0.0,94,0.00,,,0.00,Wunderground v.1.15,2013-01-30 15:30:00,
2013-01-30 10:40:00,46.7,45.1,29.69,North,10,1.0,1.0,94,0.00,,,0.00,Wunderground v.1.15,2013-01-30 15:40:00,
2013-01-30 10:50:00,47.0,45.4,29.67,NNW,342,1.0,1.0,94,0.00,,,0.00,Wunderground v.1.15,2013-01-30 15:50:00,
2013-01-30 11:00:00,47.6,46.0,29.66,North,354,2.0,2.0,94,0.00,,,0.00,Wunderground v.1.15,2013-01-30 16:00:00,
2013-01-30 11:10:00,48.0,46.4,29.66,NNE,27,2.0,2.0,94,0.00,,,0.00,Wunderground v.1.15,2013-01-30 16:10:00,
2013-01-30 11:20:00,48.9,47.2,29.65,North,0,1.0,1.0,94,0.00,,,0.00,Wunderground v.1.15,2013-01-30 16:20:00,
2013-01-30 11:30:00,49.4,47.7,29.65,North,1,1.0,2.0,94,0.00,,,0.00,Wunderground v.1.15,2013-01-30 16:30:00,
2013-01-30 11:40:00,49.4,47.7,29.65,North,354,1.0,2.0,94,0.00,,,0.00,Wunderground v.1.15,2013-01-30 16:40:00,
2013-01-30 11:50:00,49.9,48.2,29.64,North,350,1.0,1.0,94,0.00,,,0.00,Wunderground v.1.15,2013-01-30 16:50:00,
2013-01-30 12:00:00,50.4,48.7,29.63,North,0,1.0,1.0,94,0.00,,,0.00,Wunderground v.1.15,2013-01-30 17:00:00,
2013-01-30 12:10:00,51.0,49.3,29.63,North,6,1.0,1.0,94,0.00,,,0.00,Wunderground v.1.15,2013-01-30 17:10:00,
2013-01-30 12:20:00,52.0,50.3,29.60,NE,48,2.0,2.0,94,0.00,,,0.00,Wunderground v.1.15,2013-01-30 17:20:00,
2013-01-30 12:30:00,52.3,50.6,29.59,North,0,1.0,3.0,94,0.00,,,0.00,Wunderground v.1.15,2013-01-30 17:30:00,
2013-01-30 12:40:00,52.0,50.3,29.59,North,356,1.0,1.0,94,0.00,,,0.00,Wunderground v.1.15,2013-01-30 17:40:00,
2013-01-30 12:50:00,51.9,50.2,29.59,North,0,0.0,0.0,94,0.00,,,0.00,Wunderground v.1.15,2013-01-30 17:50:00,
2013-01-30 13:00:00,51.6,49.9,29.58,North,0,1.0,1.0,94,0.00,,,0.00,Wunderground v.1.15,2013-01-30 18:00:00,
2013-01-30 13:10:00,51.7,49.7,29.58,North,353,0.0,0.0,93,0.00,,,0.00,Wunderground v.1.15,2013-01-30 18:10:00,
2013-01-30 13:20:00,51.9,49.9,29.57,NW,311,0.0,0.0,93,0.00,,,0.00,Wunderground v.1.15,2013-01-30 18:20:00,
2013-01-30 13:30:00,52.2,49.9,29.55,North,6,0.0,1.0,92,0.00,,,0.00,Wunderground v.1.15,2013-01-30 18:30:00,
2013-01-30 13:40:00,52.0,49.5,29.55,NNW,339,1.0,1.0,91,0.00,,,0.00,Wunderground v.1.15,2013-01-30 18:40:00,
2013-01-30 13:50:00,52.0,49.2,29.54,NNE,18,0.0,0.0,90,0.00,,,0.00,Wunderground v.1.15,2013-01-30 18:50:00,
2013-01-30 14:00:00,52.0,49.2,29.54,North,7,1.0,1.0,90,0.00,,,0.00,Wunderground v.1.15,2013-01-30 19:00:00,
2013-01-30 14:10:00,51.9,48.8,29.54,NE,47,1.0,1.0,89,0.00,,,0.00,Wunderground v.1.15,2013-01-30 19:10:00,
2013-01-30 14:20:00,51.7,48.6,29.53,North,359,1.0,1.0,89,0.00,,,0.00,Wunderground v.1.15,2013-01-30 19:20:00,
2013-01-30 14:30:00,51.7,48.6,29.52,North,6,1.0,1.0,89,0.00,,,0.00,Wunderground v.1.15,2013-01-30 19:30:00,
2013-01-30 14:40:00,51.9,48.8,29.52,WNW,284,1.0,4.0,89,0.00,,,0.00,Wunderground v.1.15,2013-01-30 19:40:00,
2013-01-30 14:50:00,52.0,48.9,29.51,North,0,2.0,7.0,89,0.00,,,0.00,Wunderground v.1.15,2013-01-30 19:50:00,
2013-01-30 15:00:00,51.9,48.8,29.52,North,356,2.0,5.0,89,0.00,,,0.00,Wunderground v.1.15,2013-01-30 20:00:00,
2013-01-30 15:10:00,51.9,48.8,29.52,West,264,2.0,2.0,89,0.00,,,0.00,Wunderground v.1.15,2013-01-30 20:10:00,
2013-01-30 15:20:00,51.7,48.9,29.51,West,271,2.0,2.0,90,0.00,,,0.00,Wunderground v.1.15,2013-01-30 20:20:00,
2013-01-30 15:30:00,51.9,49.1,29.50,East,97,1.0,1.0,90,0.00,,,0.00,Wunderground v.1.15,2013-01-30 20:30:00,
2013-01-30 15:40:00,52.0,49.2,29.50,NW,306,2.0,2.0,90,0.00,,,0.00,Wunderground v.1.15,2013-01-30 20:40:00,
2013-01-30 15:50:00,52.0,49.2,29.51,North,357,1.0,2.0,90,0.00,,,0.00,Wunderground v.1.15,2013-01-30 20:50:00,
2013-01-30 16:00:00,52.2,49.4,29.50,North,10,2.0,2.0,90,0.00,,,0.00,Wunderground v.1.15,2013-01-30 21:00:00,
2013-01-30 16:10:00,52.5,49.7,29.50,WNW,288,2.0,2.0,90,0.00,,,0.00,Wunderground v.1.15,2013-01-30 21:10:00,
2013-01-30 16:20:00,52.5,49.4,29.49,NE,49,1.0,1.0,89,0.00,,,0.00,Wunderground v.1.15,2013-01-30 21:20:00,
2013-01-30 16:30:00,52.5,49.4,29.48,North,350,1.0,1.0,89,0.00,,,0.00,Wunderground v.1.15,2013-01-30 21:30:00,
2013-01-30 16:40:00,52.3,49.2,29.48,West,263,1.0,1.0,89,0.00,,,0.00,Wunderground v.1.15,2013-01-30 21:40:00,
2013-01-30 16:50:00,52.3,49.2,29.47,NNE,21,2.0,4.0,89,0.00,,,0.00,Wunderground v.1.15,2013-01-30 21:50:00,
2013-01-30 17:00:00,52.0,48.9,29.48,West,270,2.0,2.0,89,0.00,,,0.00,Wunderground v.1.15,2013-01-30 22:00:00,
2013-01-30 17:10:00,51.9,48.8,29.48,North,0,2.0,2.0,89,0.00,,,0.00,Wunderground v.1.15,2013-01-30 22:10:00,
2013-01-30 17:20:00,51.7,48.9,29.46,WNW,288,2.0,2.0,90,0.00,,,0.00,Wunderground v.1.15,2013-01-30 22:20:00,
2013-01-30 17:30:00,51.6,48.8,29.45,WNW,282,2.0,2.0,90,0.00,,,0.00,Wunderground v.1.15,2013-01-30 22:30:00,
2013-01-30 17:40:00,51.7,48.9,29.45,NW,309,2.0,2.0,90,0.00,,,0.00,Wunderground v.1.15,2013-01-30 22:40:00,
2013-01-30 17:50:00,51.7,48.9,29.45,NNW,347,2.0,2.0,90,0.00,,,0.00,Wunderground v.1.15,2013-01-30 22:50:00,
2013-01-30 18:00:00,52.0,49.2,29.47,East,92,2.0,2.0,90,0.00,,,0.00,Wunderground v.1.15,2013-01-30 23:00:00,
2013-01-30 18:10:00,52.2,49.4,29.47,North,11,1.0,5.0,90,0.00,,,0.01,Wunderground v.1.15,2013-01-30 23:10:00,
2013-01-30 18:20:00,51.7,48.9,29.50,North,357,1.0,1.0,90,0.09,,,0.02,Wunderground v.1.15,2013-01-30 23:20:00,
2013-01-30 18:30:00,51.7,49.2,29.48,North,356,2.0,4.0,91,0.05,,,0.03,Wunderground v.1.15,2013-01-30 23:30:00,
2013-01-30 18:40:00,51.6,49.1,29.48,NNE,21,1.0,1.0,91,0.04,,,0.03,Wunderground v.1.15,2013-01-30 23:40:00,
2013-01-30 18:50:00,51.3,48.8,29.48,North,0,0.0,2.0,91,0.04,,,0.04,Wunderground v.1.15,2013-01-30 23:50:00,
2013-01-30 19:00:00,52.2,49.9,29.47,North,359,1.0,3.0,92,0.00,,,0.04,Wunderground v.1.15,2013-01-31 00:00:00,
2013-01-30 19:10:00,52.6,50.3,29.47,NNW,343,2.0,2.0,92,0.00,,,0.04,Wunderground v.1.15,2013-01-31 00:10:00,
2013-01-30 19:20:00,52.8,50.5,29.47,NNE,16,1.0,1.0,92,0.00,,,0.04,Wunderground v.1.15,2013-01-31 00:20:00,
2013-01-30 19:30:00,52.3,50.0,29.45,NNE,16,0.0,0.0,92,0.00,,,0.04,Wunderground v.1.15,2013-01-31 00:30:00,
2013-01-30 19:40:00,52.9,50.6,29.45,North,7,0.0,0.0,92,0.00,,,0.04,Wunderground v.1.15,2013-01-31 00:40:00,
2013-01-30 19:50:00,53.2,50.9,29.45,North,3,1.0,3.0,92,0.00,,,0.04,Wunderground v.1.15,2013-01-31 00:50:00,
2013-01-30 20:00:00,53.5,51.2,29.44,North,356,2.0,2.0,92,0.00,,,0.05,Wunderground v.1.15,2013-01-31 01:00:00,
2013-01-30 20:10:00,53.2,50.9,29.44,North,354,1.0,1.0,92,0.00,,,0.05,Wunderground v.1.15,2013-01-31 01:10:00,
2013-01-30 20:20:00,52.6,50.3,29.43,North,0,1.0,1.0,92,0.05,,,0.06,Wunderground v.1.15,2013-01-31 01:20:00,
2013-01-30 20:30:00,52.0,49.7,29.42,West,274,0.0,0.0,92,0.00,,,0.06,Wunderground v.1.15,2013-01-31 01:30:00,
2013-01-30 20:40:00,51.7,49.5,29.42,North,352,0.0,0.0,92,0.00,,,0.07,Wunderground v.1.15,2013-01-31 01:40:00,
2013-01-30 20:50:00,51.4,49.2,29.41,North,6,0.0,0.0,92,0.05,,,0.08,Wunderground v.1.15,2013-01-31 01:50:00,
2013-01-30 21:00:00,51.0,48.8,29.41,North,4,0.0,0.0,92,0.04,,,0.08,Wunderground v.1.15,2013-01-31 02:00:00,
2013-01-30 21:10:00,50.4,48.2,29.41,North,4,0.0,0.0,92,0.00,,,0.08,Wunderground v.1.15,2013-01-31 02:10:00,
2013-01-30 21:20:00,49.9,47.7,29.40,WSW,243,0.0,0.0,92,0.00,,,0.08,Wunderground v.1.15,2013-01-31 02:20:00,
2013-01-30 21:30:00,49.9,47.7,29.38,North,8,0.0,2.0,92,0.00,,,0.08,Wunderground v.1.15,2013-01-31 02:30:00,
2013-01-30 21:40:00,49.9,47.7,29.38,NW,308,1.0,1.0,92,0.00,,,0.08,Wunderground v.1.15,2013-01-31 02:40:00,
2013-01-30 21:50:00,50.4,48.5,29.37,NNW,343,1.0,3.0,93,0.00,,,0.08,Wunderground v.1.15,2013-01-31 02:50:00,
2013-01-30 22:00:00,50.7,48.7,29.35,North,357,1.0,5.0,93,0.00,,,0.08,Wunderground v.1.15,2013-01-31 03:00:00,
2013-01-30 22:10:00,50.8,48.8,29.35,WSW,246,1.0,1.0,93,0.00,,,0.08,Wunderground v.1.15,2013-01-31 03:10:00,
2013-01-30 22:20:00,51.0,49.0,29.33,NNE,21,1.0,1.0,93,0.00,,,0.08,Wunderground v.1.15,2013-01-31 03:20:00,
2013-01-30 22:30:00,51.3,49.3,29.32,West,265,1.0,1.0,93,0.00,,,0.08,Wunderground v.1.15,2013-01-31 03:30:00,
2013-01-30 22:40:00,51.6,49.6,29.32,North,359,2.0,2.0,93,0.00,,,0.08,Wunderground v.1.15,2013-01-31 03:40:00,
2013-01-30 22:50:00,51.7,49.7,29.30,WNW,296,1.0,1.0,93,0.00,,,0.08,Wunderground v.1.15,2013-01-31 03:50:00,
2013-01-30 23:00:00,52.0,50.0,29.29,NNW,330,1.0,1.0,93,0.00,,,0.08,Wunderground v.1.15,2013-01-31 04:00:00,
2013-01-30 23:10:00,52.6,50.6,29.29,North,10,3.0,7.0,93,0.00,,,0.08,Wunderground v.1.15,2013-01-31 04:10:00,
2013-01-30 23:20:00,53.1,51.1,29.27,North,4,2.0,4.0,93,0.00,,,0.08,Wunderground v.1.15,2013-01-31 04:20:00,
2013-01-30 23:30:00,53.5,51.5,29.26,WNW,302,3.0,3.0,93,0.00,,,0.08,Wunderground v.1.15,2013-01-31 04:30:00,
2013-01-30 23:40:00,53.6,51.6,29.26,NNE,25,3.0,5.0,93,0.00,,,0.08,Wunderground v.1.15,2013-01-31 04:40:00,
2013-01-30 23:50:00,53.8,51.8,29.25,NNE,18,2.0,2.0,93,0.00,,,0.08,Wunderground v.1.15,2013-01-31 04:50:00,